Regional Weather Roundup

ASCA42 TJSJ 240710

RWRPR

PUERTO RICO/U.S. VIRGIN ISLANDS HOURLY WEATHER ROUNDUP

NATIONAL WEATHER SERVICE SAN JUAN PR

300 AM AST THU AUG 24 2017

PRZ001>002-007>008-010-240800-

PUERTO RICO

CITY SKY/WX TMP DP RH WIND PRES REMARKS

SAN JUAN LMM PTCLDY 81 73 78 S3 29.92F

PONCE CLEAR 73 72 94 CALM 29.94

CEIBA CLEAR 81 75 83 NE3 29.94F

VIZ001>002-240800-

U.S. VIRGIN ISLANDS

CITY SKY/WX TMP DP RH WIND PRES REMARKS

CHARLOTTE AMA CLEAR 79 73 83 E5 29.91F

CHRISTIANSTED PTCLDY 79 75 89 NE5 29.92S

HOURLY WEATHER ROUNDUP FOR THE NEWS MEDIA

CITY SKY/WX TMP DP RH WIND PRES REMARKS

ORLANDO CLOUDY 77 76 96 SE3 29.89F

NEW YORK CLEAR 66 61 84 NE3 29.88S

NEWARK CLEAR 68 56 65 CALM 29.87F

CHICAGO PTCLDY 63 55 75 SW3 30.03S

HARTFORD PTCLDY 55 53 93 CALM 29.85S

BOSTON PTCLDY 66 52 60 W8 29.85S

DALLAS CLOUDY 80 71 74 SE6 29.94S

PHILADELPHIA PTCLDY 68 56 65 NW3 29.89S

LOS ANGELES CLOUDY 66 61 84 W6 29.93F

WASHINGTON DC PTCLDY 61 59 93 CALM 29.92F